Home > Weather > Missoula > Past weeks

Flag for USA Weather for the Past 2 Weeks in Missoula, Montana, USA

Now
44 °F

More clouds than sun.


Feels Like: 41 °F
Forecast: 42 / 59 °F
Wind: 6 mph from Northwest

Location: Missoula International Airport

Current Time: Apr 30, 2016 at 11:02:09 AM

Latest Report: Apr 30, 2016 at 9:53 AM


Visibility: 10 mi

Pressure: 30.23 "Hg (26.85 "Hg at 971m altitude)

Humidity: 85%

Dew Point: 40 °F

Location of MissoulaLocation

Historic Weather in Missoula — Graph

°F

Missoula Temperature Yesterday

Maximum temperature yesterday: 52 °F (at 2:53 PM)
Minimum temperature yesterday: 34 °F (at 2:53 AM)
Average temperature yesterday: 44 °F

High & Low Weather Summary for the Past Weeks

 TemperatureHumidityPressure
High81 °F (Apr 21, 3:53 PM)96% (Apr 24, 5:53 AM)30.52 "Hg (Apr 24, 5:53 AM)
Low30 °F (Apr 17, 6:53 AM)9% (Apr 18, 3:53 PM)29.57 "Hg (Apr 22, 4:53 PM)
Average51 °F58%30.03 "Hg
* Reported Apr 15 9:53 AM — Apr 30 9:53 AM, Missoula, Weather by CustomWeather, © 2016

Note: Actual official high and low records may vary slightly from our data, if they occured in-between our weather recording intervals... More about our weather records

Advertising

Missoula Weather History for the Previous 24 Hours

Scroll right to see more
 ConditionsComfort  
Time TempWeatherWind HumidityBarometerVisibility
9:53 AM
Sat, Apr 30
44 °FMore clouds than sun.6 mph85%30.23 "Hg10 mi
8:53 AM42 °FOvercast.6 mph89%30.22 "Hg10 mi
7:53 AM41 °FLight rain. Mostly cloudy.6 mph93%30.20 "Hg10 mi
6:53 AM41 °FLight rain. Fog.5 mph89%30.17 "Hg5 mi
5:53 AM41 °FLight rain. Mostly cloudy.3 mph89%30.16 "Hg10 mi
4:53 AM42 °FLight rain. Mostly cloudy.5 mph82%30.14 "Hg10 mi
3:53 AM43 °FLight rain. Overcast.No wind86%30.12 "Hg8 mi
2:53 AM43 °FLight rain. Mostly cloudy.No wind86%30.10 "Hg10 mi
2:04 AM43 °FLight rain. Mostly cloudy.3 mph86%30.08 "Hg10 mi
1:53 AM43 °FLight rain. Mostly cloudy.No wind82%30.10 "Hg10 mi
12:53 AM44 °FMostly cloudy.3 mph85%30.08 "Hg10 mi
11:53 PM
Fri, Apr 29
45 °FLight rain. Mostly cloudy.5 mph80%30.06 "Hg10 mi
10:53 PM45 °FLight rain. Overcast.7 mph74%30.06 "Hg10 mi
9:53 PM47 °FOvercast.12 mph64%30.03 "Hg10 mi
8:53 PM47 °FMostly cloudy.9 mph64%30.02 "Hg10 mi
7:53 PM49 °FMostly cloudy.10 mph59%29.99 "Hg10 mi
6:53 PM51 °FPartly sunny.13 mph52%29.97 "Hg10 mi
5:53 PM52 °FMostly cloudy.15 mph53%29.96 "Hg10 mi
4:53 PM52 °FMostly cloudy.10 mph49%29.94 "Hg10 mi
3:53 PM51 °FOvercast.3 mph44%29.94 "Hg10 mi
2:53 PM52 °FMostly cloudy.3 mph45%29.94 "Hg10 mi
1:53 PM51 °FOvercast.7 mph46%29.93 "Hg10 mi
12:53 PM50 °FMostly cloudy.3 mph50%29.94 "Hg10 mi
11:53 AM48 °FOvercast.No wind56%29.96 "Hg10 mi
Weather by CustomWeather, © 2016

See weather overviewHow to use our weather pages